This is the latest recevied weather packets stored in our database for station/object N0OQA. If no packets are shown the sender has not sent any weather packets the latest 10 day(s).
| Time | Temp. | Humidity | Pressure | Rain* | Wind** | Luminosity | Snow |
|---|---|---|---|---|---|---|---|
| 1788584612 | 18.33° C | 96% | 1018.3 hPa | 0 mm | - | - | - |
| 1788583409 | 18.33° C | 95% | 1018.2 hPa | 0 mm | - | - | - |
| 1788581608 | 18.33° C | 94% | 1018.2 hPa | 0 mm | - | - | - |
| 1788581307 | 18.89° C | 93% | 1018.1 hPa | 0 mm | - | - | - |
| 1788581007 | 18.89° C | 93% | 1018.2 hPa | 0 mm | - | - | - |
| 1788580707 | 18.89° C | 93% | 1018.3 hPa | 0 mm | - | - | - |
| 1788580406 | 18.89° C | 92% | 1018.2 hPa | 0 mm | - | - | - |
| 1788580106 | 18.89° C | 92% | 1018.2 hPa | 0 mm | - | - | - |
| 1788579806 | 18.89° C | 92% | 1018.2 hPa | 0 mm | - | - | - |
| 1788579506 | 18.89° C | 91% | 1018.3 hPa | 0 mm | - | - | - |
| 1788579205 | 19.44° C | 91% | 1018.1 hPa | 0 mm | - | - | - |
| 1788578905 | 19.44° C | 91% | 1018.1 hPa | 0 mm | - | - | - |
| 1788578605 | 19.44° C | 90% | 1018 hPa | 0 mm | - | - | - |
| 1788577404 | 20° C | 88% | 1018 hPa | 0 mm | - | - | - |
| 1788576803 | 20° C | 87% | 1018 hPa | 0 mm | - | - | - |
| 1788574994 | 21.11° C | 83% | 1017.5 hPa | 0 mm | - | - | - |
| 1788574694 | 21.11° C | 83% | 1017.7 hPa | 0 mm | - | - | - |
| 1788573791 | 21.67° C | 80% | 1017.4 hPa | 0 mm | - | - | - |
| 1788573190 | 22.22° C | 79% | 1017.4 hPa | 0 mm | - | - | - |
| 1788572286 | 22.78° C | 77% | 1017.3 hPa | 0 mm | - | - | - |
| 1788571986 | 23.33° C | 76% | 1017.2 hPa | 0 mm | - | - | - |
| 1788571686 | 23.33° C | 75% | 1017.1 hPa | 0 mm | - | - | - |
| 1788571386 | 23.33° C | 75% | 1017 hPa | 0 mm | - | - | - |
| 1788570785 | 24.44° C | 74% | 1016.8 hPa | 0 mm | - | - | - |
| 1788569884 | 25° C | 71% | 1016.8 hPa | 0 mm | - | - | - |
* Rain since midnight (hover to see other rain measurements)
** Current wind speed in m/s (hover to see current wind gust speed)